Saginaw Browne, MI

11:15 PM EST on December 15, 2017 (GMT -0500)
Saginaw County-Browne

Weather History for KHYX - August, 2014

Change the Weather History Date:

Monday, August 18, 2014

  Actual Average (KMBS) Record (KMBS)
Temperature  
Mean Temperature 66 °F -  
Max Temperature 77 °F 76 °F 87 °F (1996)
Min Temperature 55 °F 55 °F 43 °F (2007)
Cooling Degree Days 1    
Growing Degree Days 16 (Base 50)    
Moisture  
Dew Point 60 °F    
Average Humidity 84    
Maximum Humidity 100    
Minimum Humidity 54    
Precipitation  
Precipitation 0.00 in - - ()
Sea Level Pressure  
Sea Level Pressure 29.92 in    
Wind  
Wind Speed 3 mph (ENE)    
Max Wind Speed 9 mph    
Max Gust Speed -    
Visibility 9 miles    
Events      
Averages and records for this station are not official NWS values.
T = Trace of Precipitation, MM = Missing Value Source: NWS Daily Summary

Daily Weather History Graph

Daily Weather History Graph

Search for Another Location

Airport or City:

Trip Planner

Search our weather history database for the weather conditions in past years. The results will help you decide how hot, cold, wet, or windy it might be!

Date:

Astronomy

Aug. 18, 2014 Rise Set
Actual Time 6:43 AM EDT 8:33 PM EDT
Civil Twilight 6:13 AM EDT 9:04 PM EDT
Nautical Twilight 5:35 AM EDT 9:41 PM EDT
Astronomical Twilight 4:55 AM EDT 10:21 PM EDT
Moon 12:48 AM EDT (8/18) 3:39 PM EDT (8/18)
Length of Visible Light 14h 51m
Length of Day
13h 50m
Last Quarter, 38% of the Moon is Illuminated
Aug 18
Last Quarter
Aug 25
New
Sep 2
First Quarter
Sep 8
Full
Sep 15
Last Quarter

Hourly Weather History & Observations

Time (EDT) Temp. Dew Point Humidity Pressure Visibility Wind Dir Wind Speed Gust Speed Precip Events Conditions
12:15 AM 57.2 °F 57.2 °F 100% 30.01 in 7.0 mi East 3.5 mph - N/A   Clear
12:35 AM 57.2 °F 57.2 °F 100% 30.01 in 10.0 mi Calm Calm - N/A   Clear
12:55 AM 57.2 °F 57.2 °F 100% 30.01 in 7.0 mi Calm Calm - N/A   Mostly Cloudy
1:15 AM 57.2 °F 57.2 °F 100% 30.00 in 7.0 mi East 3.5 mph - N/A   Mostly Cloudy
1:35 AM 55.4 °F 55.4 °F 100% 30.00 in 7.0 mi ENE 3.5 mph - N/A   Scattered Clouds
1:55 AM 57.2 °F 57.2 °F 100% 30.00 in 7.0 mi Calm Calm - N/A   Mostly Cloudy
2:15 AM 59.0 °F 59.0 °F 100% 29.99 in 7.0 mi Calm Calm - N/A   Overcast
2:35 AM 59.0 °F 59.0 °F 100% 29.98 in 7.0 mi ENE 4.6 mph - N/A   Overcast
2:55 AM 57.2 °F 57.2 °F 100% 29.98 in 7.0 mi Calm Calm - N/A   Mostly Cloudy
3:15 AM 59.0 °F 59.0 °F 100% 29.97 in 7.0 mi Calm Calm - N/A   Overcast
3:35 AM 59.0 °F 59.0 °F 100% 29.96 in 10.0 mi Calm Calm - N/A   Overcast
3:54 AM 59.0 °F 59.0 °F 100% 29.96 in 10.0 mi ESE 3.5 mph - N/A   Overcast
4:15 AM 59.0 °F 59.0 °F 100% 29.96 in 10.0 mi East 3.5 mph - N/A   Overcast
4:35 AM 59.0 °F 59.0 °F 100% 29.95 in 10.0 mi East 5.8 mph - N/A   Scattered Clouds
4:54 AM 57.2 °F 57.2 °F 100% 29.96 in 7.0 mi Calm Calm - N/A   Clear
5:15 AM 55.4 °F 55.4 °F 100% 29.96 in 7.0 mi Calm Calm - N/A   Clear
5:35 AM 55.4 °F 55.4 °F 100% 29.96 in 5.0 mi Calm Calm - N/A   Mostly Cloudy
5:54 AM 57.2 °F 57.2 °F 100% 29.97 in 7.0 mi Calm Calm - N/A   Overcast
6:15 AM 59.0 °F 59.0 °F 100% 29.97 in 7.0 mi North 4.6 mph - N/A   Overcast
6:35 AM 59.0 °F 59.0 °F 100% 29.97 in 7.0 mi NE 3.5 mph - N/A   Overcast
6:54 AM 57.2 °F 57.2 °F 100% 29.97 in 5.0 mi Calm Calm - N/A   Mostly Cloudy
7:15 AM 55.4 °F 55.4 °F 100% 29.97 in 7.0 mi Calm Calm - N/A   Scattered Clouds
7:35 AM 59.0 °F 59.0 °F 100% 29.98 in 5.0 mi Calm Calm - N/A   Mostly Cloudy
7:54 AM 59.0 °F 59.0 °F 100% 29.98 in 7.0 mi NE 3.5 mph - N/A   Overcast
8:15 AM 59.0 °F 59.0 °F 100% 29.99 in 7.0 mi Calm Calm - N/A   Mostly Cloudy
8:35 AM 60.8 °F 60.8 °F 100% 29.98 in 7.0 mi ENE 4.6 mph - N/A   Scattered Clouds
8:55 AM 62.6 °F 62.6 °F 100% 29.98 in 10.0 mi ENE 6.9 mph - N/A   Clear
9:15 AM 62.6 °F 62.6 °F 100% 29.97 in 10.0 mi East 8.1 mph - N/A   Clear
9:35 AM 64.4 °F 62.6 °F 94% 29.97 in 10.0 mi ENE 6.9 mph - N/A   Clear
9:55 AM 66.2 °F 62.6 °F 88% 29.96 in 10.0 mi East 4.6 mph - N/A   Clear
10:15 AM 68.0 °F 62.6 °F 83% 29.96 in 10.0 mi ENE 3.5 mph - N/A   Clear
10:35 AM 68.0 °F 59.0 °F 73% 29.96 in 10.0 mi East 5.8 mph - N/A   Clear
10:55 AM 69.8 °F 60.8 °F 73% 29.95 in 10.0 mi Calm Calm - N/A   Clear
11:15 AM 69.8 °F 57.2 °F 64% 29.95 in 10.0 mi ESE 3.5 mph - N/A   Clear
11:35 AM 69.8 °F 59.0 °F 68% 29.95 in 10.0 mi ENE 4.6 mph - N/A   Clear
11:55 AM 71.6 °F 59.0 °F 64% 29.94 in 10.0 mi East 3.5 mph - N/A   Clear
12:15 PM 71.6 °F 60.8 °F 69% 29.94 in 10.0 mi East 4.6 mph - N/A   Clear
12:35 PM 73.4 °F 60.8 °F 65% 29.93 in 10.0 mi East 4.6 mph - N/A   Clear
12:55 PM 73.4 °F 60.8 °F 65% 29.93 in 10.0 mi ENE 3.5 mph - N/A   Clear
1:15 PM 73.4 °F 60.8 °F 65% 29.91 in 10.0 mi ENE 5.8 mph - N/A   Scattered Clouds
1:34 PM 73.4 °F 60.8 °F 65% 29.92 in 10.0 mi East 6.9 mph - N/A   Mostly Cloudy
1:55 PM 73.4 °F 59.0 °F 61% 29.91 in 10.0 mi Calm Calm - N/A   Scattered Clouds
2:15 PM 75.2 °F 60.8 °F 61% 29.90 in 10.0 mi Calm Calm - N/A   Scattered Clouds
2:34 PM 77.0 °F 60.8 °F 57% 29.90 in 10.0 mi East 4.6 mph - N/A   Mostly Cloudy
2:55 PM 77.0 °F 59.0 °F 54% 29.90 in 10.0 mi NNE 3.5 mph - N/A   Mostly Cloudy
3:15 PM 75.2 °F 59.0 °F 57% 29.90 in 10.0 mi Calm Calm - N/A   Scattered Clouds
3:34 PM 73.4 °F 60.8 °F 65% 29.89 in 10.0 mi North 8.1 mph - N/A   Mostly Cloudy
3:55 PM 75.2 °F 62.6 °F 65% 29.89 in 10.0 mi NNE 9.2 mph - N/A   Mostly Cloudy
4:15 PM 75.2 °F 62.6 °F 65% 29.88 in 10.0 mi NE 4.6 mph - N/A   Scattered Clouds
4:35 PM 75.2 °F 62.6 °F 65% 29.88 in 10.0 mi NE 4.6 mph - N/A   Clear
4:55 PM 75.2 °F 62.6 °F 65% 29.87 in 10.0 mi ENE 4.6 mph - N/A   Clear
5:15 PM 75.2 °F 62.6 °F 65% 29.87 in 10.0 mi ENE 5.8 mph - N/A   Clear
5:35 PM 75.2 °F 62.6 °F 65% 29.86 in 10.0 mi NNE 6.9 mph - N/A   Clear
5:55 PM 73.4 °F 62.6 °F 69% 29.86 in 10.0 mi NE 8.1 mph - N/A   Clear
6:15 PM 73.4 °F 62.6 °F 69% 29.86 in 10.0 mi NNE 6.9 mph - N/A   Clear
6:35 PM 73.4 °F 62.6 °F 69% 29.85 in 10.0 mi NE 6.9 mph - N/A   Clear
6:55 PM 73.4 °F 62.6 °F 69% 29.85 in 10.0 mi NE 5.8 mph - N/A   Clear
7:14 PM 71.6 °F 62.6 °F 73% 29.84 in 10.0 mi NE 4.6 mph - N/A   Clear
7:35 PM 71.6 °F 62.6 °F 73% 29.84 in 10.0 mi NE 4.6 mph - N/A   Clear
7:55 PM 69.8 °F 62.6 °F 78% 29.84 in 10.0 mi NNE 3.5 mph - N/A   Clear
8:15 PM 68.0 °F 62.6 °F 83% 29.84 in 10.0 mi NE 3.5 mph - N/A   Clear
8:35 PM 68.0 °F 62.6 °F 83% 29.84 in 10.0 mi Calm Calm - N/A   Clear
8:55 PM 66.2 °F 62.6 °F 88% 29.84 in 7.0 mi Calm Calm - N/A   Scattered Clouds
9:14 PM 66.2 °F 62.6 °F 88% 29.84 in 4.0 mi Calm Calm - N/A   Mostly Cloudy
9:35 PM 66.2 °F 64.4 °F 94% 29.84 in 10.0 mi Calm Calm - N/A   Overcast
9:55 PM 64.4 °F 64.4 °F 100% 29.84 in 10.0 mi East 5.8 mph - N/A   Scattered Clouds
10:14 PM 66.2 °F 64.4 °F 94% 29.84 in 10.0 mi ESE 5.8 mph - N/A   Clear
10:35 PM 66.2 °F 64.4 °F 94% 29.84 in 10.0 mi ESE 4.6 mph - N/A   Scattered Clouds
10:55 PM 66.2 °F 64.4 °F 94% 29.84 in 10.0 mi ESE 4.6 mph - N/A   Scattered Clouds
11:14 PM 64.4 °F 64.4 °F 100% 29.84 in 10.0 mi ESE 3.5 mph - N/A   Scattered Clouds
11:35 PM 64.4 °F 64.4 °F 100% 29.83 in 10.0 mi SE 4.6 mph - N/A   Mostly Cloudy